• In Belgien
  • Länderverzeichnis
  • Für 7 Tage
  • Wassertemperatur
  • Satellitenkarten
  • Wetterkarte
  • Widgets
  • user-avatar
    Anmelden

    Stündliche Wetter Korfu

    Heute, 20 August, Montag

    Zeit Temperatur Niederschläge Wind Luftdruck Luftfeuchtigkeit
    00:00 +27°C° 0 mm 3 m/S 756 mmHg 47%
    01:00 +26°C° 0 mm 3 m/S 755 mmHg 46%
    02:00 +26°C° 0 mm 3 m/S 755 mmHg 46%
    03:00 +26°C° 0 mm 3 m/S 755 mmHg 47%
    04:00 +25°C° 0 mm 3 m/S 755 mmHg 48%
    05:00 +26°C° 0 mm 3 m/S 755 mmHg 48%
    06:00 +27°C° 0 mm 3 m/S 755 mmHg 48%
    07:00 +28°C° 0 mm 3 m/S 755 mmHg 49%
    08:00 +30°C° 0 mm 3 m/S 755 mmHg 44%
    09:00 +32°C° 0 mm 2 m/S 755 mmHg 40%
    10:00 +35°C° 0 mm 2 m/S 755 mmHg 36%
    11:00 +35°C° 0 mm 2 m/S 755 mmHg 35%
    12:00 +36°C° 0 mm 2 m/S 755 mmHg 34%
    13:00 +36°C° 0 mm 3 m/S 755 mmHg 33%
    14:00 +35°C° 0 mm 3 m/S 755 mmHg 37%
    15:00 +33°C° 0 mm 3 m/S 755 mmHg 41%
    16:00 +31°C° 0 mm 3 m/S 755 mmHg 45%
    17:00 +30°C° 0,1 mm 3 m/S 755 mmHg 50%
    18:00 +29°C° 0,1 mm 3 m/S 755 mmHg 55%
    19:00 +28°C° 0,1 mm 3 m/S 755 mmHg 59%
    20:00 +27°C° 0,1 mm 3 m/S 755 mmHg 61%
    21:00 +27°C° 0,1 mm 3 m/S 755 mmHg 63%
    22:00 +26°C° 0,1 mm 3 m/S 756 mmHg 65%
    23:00 +26°C° 0 mm 3 m/S 755 mmHg 65%

    Morgen, 21 August, Dienstag

    Zeit Temperatur Niederschläge Wind Luftdruck Luftfeuchtigkeit
    00:00 +26°C° 0 mm 3 m/S 755 mmHg 66%
    01:00 +25°C° 0 mm 2 m/S 755 mmHg 66%
    02:00 +25°C° 0 mm 2 m/S 755 mmHg 66%
    03:00 +25°C° 0 mm 2 m/S 755 mmHg 65%
    04:00 +25°C° 0 mm 2 m/S 755 mmHg 65%
    05:00 +26°C° 0 mm 2 m/S 755 mmHg 62%
    06:00 +27°C° 0 mm 2 m/S 756 mmHg 60%
    07:00 +28°C° 0 mm 2 m/S 756 mmHg 57%
    08:00 +30°C° 0 mm 2 m/S 756 mmHg 51%
    09:00 +32°C° 0 mm 2 m/S 756 mmHg 44%
    10:00 +34°C° 0 mm 1 m/S 756 mmHg 38%
    11:00 +35°C° 0 mm 2 m/S 756 mmHg 39%
    12:00 +34°C° 0 mm 2 m/S 756 mmHg 40%
    13:00 +34°C° 0 mm 3 m/S 756 mmHg 41%
    14:00 +33°C° 0 mm 3 m/S 756 mmHg 45%
    15:00 +31°C° 0 mm 2 m/S 756 mmHg 49%
    16:00 +30°C° 0 mm 2 m/S 755 mmHg 53%
    17:00 +30°C° 0 mm 2 m/S 756 mmHg 55%
    18:00 +29°C° 0 mm 2 m/S 756 mmHg 56%
    19:00 +28°C° 0 mm 2 m/S 756 mmHg 58%
    20:00 +28°C° 0 mm 2 m/S 756 mmHg 60%
    21:00 +27°C° 0 mm 2 m/S 756 mmHg 62%
    22:00 +27°C° 0 mm 2 m/S 756 mmHg 63%
    23:00 +26°C° 0 mm 2 m/S 756 mmHg 64%

    übermorgen, 22 August, Mittwoch

    Zeit Temperatur Niederschläge Wind Luftdruck Luftfeuchtigkeit
    00:00 +26°C° 0 mm 2 m/S 756 mmHg 64%
    01:00 +25°C° 0 mm 2 m/S 756 mmHg 65%
    02:00 +25°C° 0 mm 2 m/S 756 mmHg 64%
    03:00 +25°C° 0 mm 2 m/S 756 mmHg 63%
    04:00 +25°C° 0 mm 2 m/S 756 mmHg 63%
    05:00 +26°C° 0 mm 2 m/S 756 mmHg 60%
    06:00 +27°C° 0 mm 2 m/S 757 mmHg 57%
    07:00 +28°C° 0 mm 2 m/S 757 mmHg 55%
    08:00 +30°C° 0 mm 1 m/S 757 mmHg 49%
    09:00 +32°C° 0 mm 1 m/S 757 mmHg 43%
    10:00 +34°C° 0 mm 1 m/S 757 mmHg 37%
    11:00 +35°C° 0 mm 2 m/S 757 mmHg 36%
    12:00 +36°C° 0 mm 2 m/S 756 mmHg 35%
    13:00 +36°C° 0 mm 3 m/S 756 mmHg 34%
    14:00 +35°C° 0 mm 3 m/S 756 mmHg 38%
    15:00 +34°C° 0 mm 3 m/S 756 mmHg 42%
    16:00 +33°C° 0 mm 3 m/S 756 mmHg 46%
    17:00 +31°C° 0 mm 3 m/S 756 mmHg 51%
    18:00 +30°C° 0 mm 3 m/S 756 mmHg 55%
    19:00 +28°C° 0 mm 3 m/S 756 mmHg 59%
    20:00 +28°C° 0 mm 3 m/S 756 mmHg 59%
    21:00 +27°C° 0 mm 3 m/S 757 mmHg 59%
    22:00 +27°C° 0 mm 3 m/S 757 mmHg 58%
    23:00 +26°C° 0 mm 3 m/S 757 mmHg 55%

    23 August, Donnerstag

    Zeit Temperatur Niederschläge Wind Luftdruck Luftfeuchtigkeit
    00:00 +26°C° 0 mm 2 m/S 757 mmHg 53%
    01:00 +25°C° 0 mm 2 m/S 756 mmHg 50%
    02:00 +25°C° 0 mm 2 m/S 756 mmHg 47%
    03:00 +25°C° 0 mm 2 m/S 756 mmHg 45%
    04:00 +25°C° 0 mm 3 m/S 756 mmHg 42%
    05:00 +26°C° 0 mm 2 m/S 756 mmHg 42%
    06:00 +27°C° 0 mm 2 m/S 756 mmHg 41%
    07:00 +28°C° 0 mm 2 m/S 756 mmHg 41%
    08:00 +30°C° 0 mm 2 m/S 756 mmHg 37%
    09:00 +32°C° 0 mm 1 m/S 756 mmHg 33%
    10:00 +34°C° 0 mm 1 m/S 756 mmHg 29%
    11:00 +35°C° 0 mm 1 m/S 756 mmHg 28%
    12:00 +36°C° 0 mm 2 m/S 756 mmHg 28%
    13:00 +36°C° 0 mm 2 m/S 755 mmHg 28%
    14:00 +36°C° 0 mm 3 m/S 755 mmHg 31%
    15:00 +35°C° 0 mm 3 m/S 755 mmHg 35%
    16:00 +34°C° 0 mm 3 m/S 755 mmHg 38%
    17:00 +31°C° 0 mm 3 m/S 755 mmHg 44%
    18:00 +30°C° 0 mm 3 m/S 755 mmHg 50%
    19:00 +28°C° 0 mm 2 m/S 755 mmHg 56%
    20:00 +27°C° 0 mm 2 m/S 755 mmHg 56%
    21:00 +27°C° 0 mm 2 m/S 756 mmHg 56%
    22:00 +26°C° 0 mm 2 m/S 756 mmHg 56%
    23:00 +26°C° 0 mm 2 m/S 756 mmHg 55%

    24 August, Freitag

    Zeit Temperatur Niederschläge Wind Luftdruck Luftfeuchtigkeit
    00:00 +26°C° 0 mm 2 m/S 756 mmHg 54%
    01:00 +26°C° 0 mm 2 m/S 755 mmHg 53%
    02:00 +25°C° 0 mm 2 m/S 755 mmHg 52%
    03:00 +25°C° 0 mm 2 m/S 755 mmHg 52%
    04:00 +25°C° 0 mm 2 m/S 755 mmHg 51%
    05:00 +26°C° 0 mm 2 m/S 755 mmHg 49%
    06:00 +27°C° 0 mm 1 m/S 755 mmHg 48%
    07:00 +28°C° 0 mm 1 m/S 755 mmHg 46%
    08:00 +30°C° 0 mm 1 m/S 755 mmHg 42%
    09:00 +31°C° 0 mm 1 m/S 755 mmHg 39%
    10:00 +33°C° 0 mm 1 m/S 755 mmHg 35%
    11:00 +34°C° 0 mm 2 m/S 755 mmHg 35%
    12:00 +35°C° 0 mm 2 m/S 755 mmHg 35%
    13:00 +35°C° 0 mm 3 m/S 754 mmHg 36%
    14:00 +34°C° 0 mm 3 m/S 754 mmHg 38%
    15:00 +34°C° 0 mm 3 m/S 754 mmHg 41%
    16:00 +33°C° 0 mm 3 m/S 754 mmHg 44%
    17:00 +31°C° 0 mm 2 m/S 754 mmHg 50%
    18:00 +29°C° 0 mm 2 m/S 754 mmHg 56%
    19:00 +28°C° 0 mm 1 m/S 754 mmHg 62%
    20:00 +27°C° 0 mm 1 m/S 754 mmHg 64%
    21:00 +27°C° 0 mm 1 m/S 755 mmHg 66%
    22:00 +26°C° 0 mm 1 m/S 755 mmHg 68%
    23:00 +26°C° 0 mm 1 m/S 754 mmHg 68%

    25 August, Samstag

    Zeit Temperatur Niederschläge Wind Luftdruck Luftfeuchtigkeit
    00:00 +25°C° 0 mm 1 m/S 754 mmHg 69%
    01:00 +25°C° 0 mm 1 m/S 754 mmHg 69%
    02:00 +25°C° 0 mm 1 m/S 754 mmHg 70%
    03:00 +24°C° 0 mm 1 m/S 754 mmHg 70%
    04:00 +24°C° 0 mm 1 m/S 754 mmHg 71%
    05:00 +25°C° 0 mm 1 m/S 754 mmHg 67%
    06:00 +26°C° 0 mm 2 m/S 754 mmHg 62%
    07:00 +27°C° 0 mm 2 m/S 754 mmHg 58%
    08:00 +29°C° 0 mm 2 m/S 754 mmHg 54%
    09:00 +30°C° 0 mm 2 m/S 754 mmHg 49%
    10:00 +32°C° 0 mm 2 m/S 755 mmHg 45%
    11:00 +32°C° 0 mm 2 m/S 754 mmHg 44%
    12:00 +34°C° 0 mm 3 m/S 754 mmHg 44%
    13:00 +34°C° 0 mm 3 m/S 754 mmHg 43%
    14:00 +34°C° 0 mm 3 m/S 754 mmHg 45%
    15:00 +32°C° 0 mm 2 m/S 754 mmHg 47%
    16:00 +32°C° 0 mm 2 m/S 753 mmHg 50%
    17:00 +30°C° 0 mm 2 m/S 754 mmHg 57%
    18:00 +29°C° 0 mm 1 m/S 754 mmHg 64%
    19:00 +27°C° 0 mm 1 m/S 754 mmHg 71%
    20:00 +26°C° 0 mm 1 m/S 754 mmHg 74%
    21:00 +26°C° 0 mm 1 m/S 754 mmHg 76%
    22:00 +25°C° 0 mm 1 m/S 754 mmHg 78%
    23:00 +25°C° 0 mm 1 m/S 754 mmHg 79%
    Mehr zeigen